Location: Riedlingen
(48.1569°N, 9.4757°E)
Time: 04:15:35
(UTC+02:00)

ISS - Pass Details

Date: 21 May 2021
Orbit: 417 x 422 km, 51.6° (Epoch: 15 June)

Event Time Altitude Azimuth Distance (km) Brightness Sun altitude
Rises 00:31:17 0° 290° (WNW) 2,370 0.5 -20.8°
Reaches altitude 10° 00:33:24 10° 294° (WNW) 1,506 -0.5 -20.9°
Maximum altitude 00:36:46 63° 16° (NNE) 476 -3.4 -21.0°
Enters shadow 00:37:05 58° 50° (NE) 496 -3.4 -21.0°
